DAL8891 KSFO-KLAX

Flight info

Callsign DAL8891
Flight time 0h 51m
Altitude 37000
Route WESLA5 SUSEY EBAYE BURGL IRNMN2
Aircraft A321/M-SDE3FGHIRWY/LB1

Departure

Time 2026-04-23 03:17
Airport San Francisco International Airport (KSFO)

Arrival

Time 2026-04-23 04:09
Airport Los Angeles International Airport (KLAX)
Time Latitude Longitude Altitude Speed Heading
2026-04-23 02:57 37.62678 -122.38160 24 ft 0 kts 117°
2026-04-23 03:08 37.62682 -122.38170 22 ft 2 kts 118°
2026-04-23 03:08 37.62690 -122.38189 22 ft 2 kts 123°
2026-04-23 03:08 37.62699 -122.38206 22 ft 2 kts 124°
2026-04-23 03:08 37.62709 -122.38223 22 ft 2 kts 136°
2026-04-23 03:09 37.62721 -122.38236 23 ft 2 kts 163°
2026-04-23 03:09 37.62737 -122.38237 24 ft 1 kts 206°
2026-04-23 03:09 37.62740 -122.38235 24 ft 0 kts 208°
2026-04-23 03:12 37.62723 -122.38246 24 ft 10 kts 207°
2026-04-23 03:12 37.62634 -122.38303 23 ft 10 kts 207°
2026-04-23 03:12 37.62586 -122.38287 22 ft 9 kts 115°
2026-04-23 03:12 37.62532 -122.38155 22 ft 23 kts 118°
2026-04-23 03:13 37.62458 -122.37978 23 ft 23 kts 117°
2026-04-23 03:13 37.62380 -122.37793 22 ft 26 kts 118°
2026-04-23 03:13 37.62295 -122.37590 24 ft 26 kts 118°
2026-04-23 03:13 37.62210 -122.37390 22 ft 26 kts 118°
2026-04-23 03:14 37.62126 -122.37190 25 ft 26 kts 118°
2026-04-23 03:14 37.62044 -122.36994 22 ft 26 kts 116°
2026-04-23 03:14 37.61963 -122.36793 22 ft 25 kts 117°
2026-04-23 03:14 37.61882 -122.36600 23 ft 25 kts 118°
2026-04-23 03:15 37.61799 -122.36406 23 ft 25 kts 118°
2026-04-23 03:15 37.61718 -122.36214 22 ft 25 kts 118°
2026-04-23 03:15 37.61637 -122.36022 25 ft 25 kts 118°
2026-04-23 03:15 37.61556 -122.35833 22 ft 24 kts 118°
2026-04-23 03:16 37.61483 -122.35681 22 ft 16 kts 150°
2026-04-23 03:16 37.61381 -122.35718 22 ft 16 kts 213°
2026-04-23 03:16 37.61477 -122.36011 22 ft 60 kts 298°
2026-04-23 03:17 37.61790 -122.36760 25 ft 128 kts 298°
2026-04-23 03:17 37.62281 -122.37935 158 ft 164 kts 298°
2026-04-23 03:17 37.62829 -122.39223 778 ft 168 kts 297°
2026-04-23 03:17 37.63373 -122.40517 1437 ft 171 kts 299°
2026-04-23 03:18 37.63933 -122.41862 2085 ft 175 kts 299°
2026-04-23 03:18 37.64540 -122.43334 2253 ft 202 kts 299°
2026-04-23 03:18 37.65225 -122.45004 2507 ft 226 kts 300°
2026-04-23 03:18 37.65980 -122.46840 2854 ft 247 kts 299°
2026-04-23 03:19 37.66729 -122.48775 3698 ft 246 kts 291°
2026-04-23 03:19 37.66807 -122.51007 4412 ft 268 kts 254°
2026-04-23 03:19 37.65789 -122.52984 5398 ft 276 kts 219°
2026-04-23 03:19 37.64034 -122.53944 6436 ft 281 kts 186°
2026-04-23 03:20 37.62099 -122.53604 7401 ft 285 kts 160°
2026-04-23 03:20 37.60229 -122.52736 8391 ft 288 kts 159°
2026-04-23 03:20 37.58335 -122.51853 9365 ft 293 kts 159°
2026-04-23 03:20 37.56401 -122.50950 10278 ft 301 kts 160°
2026-04-23 03:21 37.54363 -122.49995 10684 ft 324 kts 160°
2026-04-23 03:21 37.52183 -122.48971 11109 ft 344 kts 160°
2026-04-23 03:21 37.49988 -122.47741 11741 ft 355 kts 150°
2026-04-23 03:21 37.47959 -122.45937 12521 ft 361 kts 139°
2026-04-23 03:22 37.46182 -122.43658 13309 ft 367 kts 133°
2026-04-23 03:22 37.44439 -122.41279 14095 ft 372 kts 133°
2026-04-23 03:22 37.42665 -122.38862 14776 ft 378 kts 133°
2026-04-23 03:22 37.40867 -122.36416 15436 ft 384 kts 133°
2026-04-23 03:23 37.39038 -122.33929 16115 ft 390 kts 134°
2026-04-23 03:23 37.37179 -122.31400 16752 ft 397 kts 134°
2026-04-23 03:23 37.35289 -122.28832 17411 ft 403 kts 134°
2026-04-23 03:23 37.33367 -122.26227 18038 ft 409 kts 134°
2026-04-23 03:24 37.31417 -122.23588 18675 ft 415 kts 134°
2026-04-23 03:24 37.29440 -122.20917 19263 ft 419 kts 135°
2026-04-23 03:24 37.27443 -122.18218 19868 ft 423 kts 135°
2026-04-23 03:24 37.25431 -122.15501 20471 ft 427 kts 135°
2026-04-23 03:25 37.23399 -122.12757 21044 ft 431 kts 135°
2026-04-23 03:25 37.21347 -122.09989 21612 ft 436 kts 135°
2026-04-23 03:25 37.19274 -122.07194 22202 ft 440 kts 135°
2026-04-23 03:25 37.17178 -122.04370 22755 ft 444 kts 136°
2026-04-23 03:26 37.15062 -122.01520 23320 ft 448 kts 136°
2026-04-23 03:26 37.12928 -121.98648 23840 ft 451 kts 136°
2026-04-23 03:26 37.10796 -121.95780 24479 ft 449 kts 136°
2026-04-23 03:26 37.08659 -121.92907 24966 ft 452 kts 137°
2026-04-23 03:27 37.06532 -121.90053 25379 ft 456 kts 137°
2026-04-23 03:27 37.04355 -121.87139 25795 ft 461 kts 137°
2026-04-23 03:27 37.02156 -121.84200 26219 ft 465 kts 137°
2026-04-23 03:27 36.99933 -121.81234 26627 ft 469 kts 137°
2026-04-23 03:28 36.97691 -121.78244 27024 ft 473 kts 138°
2026-04-23 03:28 36.95429 -121.75231 27437 ft 477 kts 138°
2026-04-23 03:28 36.93149 -121.72190 27841 ft 481 kts 138°
2026-04-23 03:28 36.90850 -121.69126 28233 ft 485 kts 138°
2026-04-23 03:29 36.88533 -121.66037 28625 ft 489 kts 139°
2026-04-23 03:29 36.86198 -121.62930 29020 ft 493 kts 139°
2026-04-23 03:29 36.83842 -121.59799 29371 ft 496 kts 139°
2026-04-23 03:29 36.81469 -121.56648 29782 ft 499 kts 139°
2026-04-23 03:30 36.79075 -121.53472 30165 ft 503 kts 139°
2026-04-23 03:30 36.76666 -121.50282 30499 ft 507 kts 140°
2026-04-23 03:30 36.74241 -121.47075 30812 ft 510 kts 140°
2026-04-23 03:30 36.71800 -121.43850 31125 ft 512 kts 140°
2026-04-23 03:31 36.69345 -121.40612 31397 ft 515 kts 140°
2026-04-23 03:31 36.66881 -121.37362 31742 ft 517 kts 140°
2026-04-23 03:31 36.64415 -121.34104 32200 ft 516 kts 140°
2026-04-23 03:31 36.61957 -121.30857 32687 ft 515 kts 140°
2026-04-23 03:32 36.59498 -121.27617 33149 ft 514 kts 140°
2026-04-23 03:32 36.57040 -121.24390 33615 ft 513 kts 140°
2026-04-23 03:32 36.54585 -121.21170 34109 ft 512 kts 140°
2026-04-23 03:32 36.52136 -121.17960 34499 ft 511 kts 141°
2026-04-23 03:33 36.49718 -121.14792 34914 ft 510 kts 141°
2026-04-23 03:33 36.47279 -121.11597 35332 ft 509 kts 141°
2026-04-23 03:33 36.44844 -121.08412 35746 ft 507 kts 141°
2026-04-23 03:33 36.42420 -121.05234 36158 ft 507 kts 141°
2026-04-23 03:34 36.40044 -121.01979 36566 ft 507 kts 139°
2026-04-23 03:34 36.37734 -120.98673 36957 ft 507 kts 138°
2026-04-23 03:34 36.35456 -120.95328 37180 ft 507 kts 137°
2026-04-23 03:34 36.33201 -120.91981 37212 ft 503 kts 137°
2026-04-23 03:35 36.28702 -120.85384 37203 ft 499 kts 139°
2026-04-23 03:35 36.24164 -120.78893 37170 ft 498 kts 139°
2026-04-23 03:36 36.19636 -120.72479 37198 ft 497 kts 139°
2026-04-23 03:36 36.15106 -120.66034 37196 ft 496 kts 139°
2026-04-23 03:37 36.10580 -120.59582 37187 ft 497 kts 139°
2026-04-23 03:37 36.06053 -120.53146 37164 ft 496 kts 139°
2026-04-23 03:38 36.01446 -120.46641 37185 ft 509 kts 139°
2026-04-23 03:38 35.96757 -120.40019 37180 ft 513 kts 139°
2026-04-23 03:39 35.92053 -120.33359 37165 ft 515 kts 139°
2026-04-23 03:39 35.87232 -120.26856 37171 ft 505 kts 147°
2026-04-23 03:40 35.84488 -120.24245 37173 ft 492 kts 157°
2026-04-23 03:40 35.81586 -120.22048 37174 ft 489 kts 159°
2026-04-23 03:40 35.75776 -120.17688 37126 ft 489 kts 159°
2026-04-23 03:41 35.70003 -120.13341 37154 ft 490 kts 158°
2026-04-23 03:41 35.64199 -120.08963 37181 ft 489 kts 159°
2026-04-23 03:42 35.58391 -120.04587 37129 ft 489 kts 159°
2026-04-23 03:42 35.52584 -120.00213 37148 ft 489 kts 159°
2026-04-23 03:43 35.46787 -119.95841 37173 ft 489 kts 158°
2026-04-23 03:43 35.40983 -119.91475 37155 ft 488 kts 159°
2026-04-23 03:44 35.35175 -119.87129 37141 ft 488 kts 159°
2026-04-23 03:44 35.29375 -119.82790 37154 ft 490 kts 156°
2026-04-23 03:45 35.23856 -119.77730 37170 ft 497 kts 152°
2026-04-23 03:45 35.18373 -119.72580 37132 ft 494 kts 152°
2026-04-23 03:46 35.15660 -119.70037 36621 ft 492 kts 152°
2026-04-23 03:46 35.12928 -119.67498 35812 ft 495 kts 152°
2026-04-23 03:46 35.10172 -119.64951 35035 ft 498 kts 152°
2026-04-23 03:46 35.07401 -119.62392 34278 ft 501 kts 151°
2026-04-23 03:47 35.04620 -119.59814 33434 ft 503 kts 150°
2026-04-23 03:47 35.01861 -119.57246 32573 ft 505 kts 150°
2026-04-23 03:47 34.99072 -119.54644 31756 ft 505 kts 150°
2026-04-23 03:47 34.96278 -119.52039 30991 ft 505 kts 150°
2026-04-23 03:48 34.93472 -119.49427 30214 ft 505 kts 150°
2026-04-23 03:48 34.90679 -119.46834 29346 ft 504 kts 150°
2026-04-23 03:48 34.87876 -119.44280 28483 ft 503 kts 150°
2026-04-23 03:48 34.85064 -119.41763 27668 ft 500 kts 150°
2026-04-23 03:49 34.82273 -119.39289 27062 ft 493 kts 150°
2026-04-23 03:49 34.79519 -119.36854 26547 ft 485 kts 150°
2026-04-23 03:49 34.76812 -119.34454 26060 ft 477 kts 150°
2026-04-23 03:49 34.74152 -119.32091 25580 ft 470 kts 150°
2026-04-23 03:50 34.71524 -119.29771 25093 ft 463 kts 150°
2026-04-23 03:50 34.68927 -119.27497 24635 ft 457 kts 151°
2026-04-23 03:50 34.66363 -119.25266 24173 ft 450 kts 151°
2026-04-23 03:50 34.64684 -119.23807 23884 ft 447 kts 151°
2026-04-23 03:51 34.62167 -119.21629 23383 ft 441 kts 151°
2026-04-23 03:51 34.59680 -119.19489 22876 ft 435 kts 151°
2026-04-23 03:51 34.57219 -119.17379 22294 ft 432 kts 151°
2026-04-23 03:51 34.54783 -119.15284 21754 ft 428 kts 150°
2026-04-23 03:52 34.52376 -119.13181 21215 ft 425 kts 150°
2026-04-23 03:52 34.50000 -119.11075 20760 ft 420 kts 150°
2026-04-23 03:52 34.47661 -119.08988 20189 ft 418 kts 150°
2026-04-23 03:52 34.45332 -119.06912 19808 ft 412 kts 150°
2026-04-23 03:53 34.43040 -119.04880 19423 ft 405 kts 150°
2026-04-23 03:53 34.40763 -119.02892 18991 ft 401 kts 151°
2026-04-23 03:53 34.38502 -119.00930 18570 ft 398 kts 151°
2026-04-23 03:53 34.36258 -118.98995 18086 ft 395 kts 151°
2026-04-23 03:54 34.34028 -118.97074 17593 ft 392 kts 150°
2026-04-23 03:54 34.31830 -118.95140 17128 ft 390 kts 149°
2026-04-23 03:54 34.29659 -118.93182 16599 ft 387 kts 149°
2026-04-23 03:54 34.27518 -118.91222 16094 ft 386 kts 148°
2026-04-23 03:55 34.25387 -118.89265 15601 ft 384 kts 148°
2026-04-23 03:55 34.23293 -118.87334 15111 ft 382 kts 148°
2026-04-23 03:55 34.21183 -118.85383 14613 ft 381 kts 147°
2026-04-23 03:55 34.19065 -118.83434 14023 ft 384 kts 147°
2026-04-23 03:56 34.16935 -118.81479 13380 ft 385 kts 147°
2026-04-23 03:56 34.14840 -118.79446 12730 ft 387 kts 143°
2026-04-23 03:56 34.12807 -118.77303 12098 ft 389 kts 141°
2026-04-23 03:56 34.10837 -118.75121 11458 ft 376 kts 140°
2026-04-23 03:57 34.08981 -118.73023 10859 ft 356 kts 140°
2026-04-23 03:57 34.07192 -118.71007 10480 ft 348 kts 140°
2026-04-23 03:57 34.05434 -118.69049 10251 ft 340 kts 140°
2026-04-23 03:57 34.03910 -118.66911 9959 ft 336 kts 124°
2026-04-23 03:58 34.02915 -118.64380 9456 ft 331 kts 106°
2026-04-23 03:58 34.02522 -118.61729 8940 ft 312 kts 95°
2026-04-23 03:58 34.02295 -118.59194 8436 ft 297 kts 95°
2026-04-23 03:58 34.02069 -118.56778 8019 ft 281 kts 95°
2026-04-23 03:59 34.01850 -118.54516 8013 ft 264 kts 95°
2026-04-23 03:59 34.01643 -118.52357 8017 ft 257 kts 95°
2026-04-23 03:59 34.01441 -118.50200 7755 ft 260 kts 95°
2026-04-23 03:59 34.01239 -118.48042 7450 ft 259 kts 95°
2026-04-23 04:00 34.01092 -118.45887 7127 ft 257 kts 86°
2026-04-23 04:00 34.01351 -118.43772 6815 ft 254 kts 76°
2026-04-23 04:00 34.01717 -118.41699 6496 ft 253 kts 76°
2026-04-23 04:00 34.02076 -118.39627 6174 ft 252 kts 77°
2026-04-23 04:01 34.02430 -118.37566 5847 ft 251 kts 77°
2026-04-23 04:01 34.02772 -118.35514 5624 ft 245 kts 78°
2026-04-23 04:01 34.03020 -118.33513 5493 ft 237 kts 80°
2026-04-23 04:01 34.03220 -118.31556 5377 ft 234 kts 81°
2026-04-23 04:02 34.03411 -118.29609 5251 ft 233 kts 81°
2026-04-23 04:02 34.03607 -118.27676 5138 ft 232 kts 81°
2026-04-23 04:02 34.03809 -118.25743 5037 ft 232 kts 80°
2026-04-23 04:02 34.04016 -118.23814 4908 ft 234 kts 81°
2026-04-23 04:03 34.04227 -118.21882 4651 ft 231 kts 80°
2026-04-23 04:03 34.04424 -118.19987 4393 ft 230 kts 85°
2026-04-23 04:03 34.04108 -118.18103 4134 ft 229 kts 120°
2026-04-23 04:03 34.03024 -118.16772 3876 ft 227 kts 153°
2026-04-23 04:04 34.01519 -118.16287 3635 ft 224 kts 184°
2026-04-23 04:04 34.00037 -118.16801 3394 ft 225 kts 209°
2026-04-23 04:04 33.98617 -118.17623 3143 ft 226 kts 208°
2026-04-23 04:04 33.97416 -118.18772 3026 ft 221 kts 234°
2026-04-23 04:05 33.96558 -118.20315 2903 ft 222 kts 240°
2026-04-23 04:05 33.95763 -118.21903 2757 ft 220 kts 241°
2026-04-23 04:05 33.95204 -118.23538 2548 ft 206 kts 262°
2026-04-23 04:05 33.95041 -118.25183 2288 ft 191 kts 265°
2026-04-23 04:06 33.94899 -118.26718 2041 ft 177 kts 264°
2026-04-23 04:06 33.94764 -118.28102 1807 ft 158 kts 264°
2026-04-23 04:06 33.94641 -118.29328 1604 ft 140 kts 264°
2026-04-23 04:06 33.94528 -118.30456 1424 ft 133 kts 264°
2026-04-23 04:07 33.94418 -118.31540 1247 ft 129 kts 264°
2026-04-23 04:07 33.94310 -118.32610 1078 ft 129 kts 263°
2026-04-23 04:07 33.94203 -118.33671 907 ft 127 kts 263°
2026-04-23 04:07 33.94096 -118.34720 740 ft 126 kts 264°
2026-04-23 04:08 33.93989 -118.35772 562 ft 127 kts 263°
2026-04-23 04:08 33.93883 -118.36822 396 ft 125 kts 264°
2026-04-23 04:08 33.93782 -118.37830 236 ft 119 kts 263°
2026-04-23 04:08 33.93682 -118.38807 98 ft 113 kts 262°
2026-04-23 04:09 33.93601 -118.39597 95 ft 61 kts 262°
2026-04-23 04:09 33.93569 -118.39902 95 ft 20 kts 263°
2026-04-23 04:09 33.93545 -118.40093 97 ft 27 kts 253°
2026-04-23 04:09 33.93453 -118.40211 93 ft 13 kts 168°
2026-04-23 04:10 33.93426 -118.40122 95 ft 17 kts 85°
2026-04-23 04:10 33.93441 -118.39973 93 ft 18 kts 82°
2026-04-23 04:10 33.93453 -118.39845 93 ft 10 kts 90°
2026-04-23 04:10 33.93399 -118.39810 93 ft 10 kts 175°
2026-04-23 04:11 33.93334 -118.39828 94 ft 10 kts 198°
2026-04-23 04:11 33.93286 -118.39880 93 ft 10 kts 261°
2026-04-23 04:11 33.93285 -118.39905 93 ft 0 kts 265°